Regional Weather Roundup
Issued by NWS

Home | Current Version | Previous Version | Text Only | Print | Product List | Glossary Off
Versions: 1 2 3 4 5 6 7 8 9 10 11 12 13 14 15 16 17 18 19 20 21 22 23 24 25 26 27 28 29 30 31 32 33 34 35 36 37 38 39 40 41 42 43 44 45 46 47 48 49 50

000
ASUS43 KIND 122009
RWRIN

WEATHER ROUNDUP FOR INDIANA
NATIONAL WEATHER SERVICE INDIANAPOLIS IN
300 PM EST TUE DEC 12 2017

NOTE: "FAIR" INDICATES FEW OR NO CLOUDS BELOW 12,000 FEET WITH NO
SIGNIFICANT WEATHER AND/OR OBSTRUCTIONS TO VISIBILITY.

* - STATION DOES NOT REPORT WEATHER SUCH AS PRECIPITATION OR FOG.

+ - STATION NOT QUALITY CONTROLLED BY THE NATIONAL WEATHER SERVICE.
    USE DATA WITH CAUTION...ESPECIALLY DEWPOINT AND RELATIVE
    HUMIDITY OBSERVATIONS.

INZ001>003-010>013-019-020-122100-
NORTHWEST INDIANA

CITY           SKY/WX    TMP DP  RH WIND       PRES   REMARKS
GARY /AIRPORT/ MOSUNNY   25   5  42 W14G28    30.05F WCI  13
KNOX *+        CLOUDY    21  12  68 NW15G25   30.01S WCI   8
LA PORTE +     MOSUNNY   21  10  64 NW14G23   30.00S WCI   8
MICHIGAN CITY+ CLOUDY    23  10  58 NW9G17    30.02S WCI  13
MONTICELLO +   MOSUNNY   24   5  43 NW18G24   30.02S WCI  10
RENSSELAER +   SUNNY     27   0  31 W15       30.04S WCI  15
VALPARAISO     PTSUNNY   22   8  55 NW15G21   30.02S WCI   9

$$

LMZ046-743>745-122100-
SOUTHERN LAKE MICHIGAN

STATION/POSITION TIME  TEMP    WIND        PRES    WAVE
                       AIR SEA DIR/SP/G            HT
                 (UTC) (F)     (DEG/KT/KT) (MB)    (FT)
BURNS HARBOR     1940   21     300/ 12/ 19 1017.3F
MICHIGAN CITY    1940   21     290/ 21/ 25   N/A

$$

INZ004-005-014>016-021>024-122100-
NORTH CENTRAL INDIANA

CITY           SKY/WX    TMP DP  RH WIND       PRES   REMARKS
ELKHART        LGT SNOW  21  16  79 NW15G21   29.95F WCI   8
GOSHEN         CLOUDY    21  15  78 NW12      29.94S WCI   9
LOGANSPORT +   SUNNY     25   5  42 W14       30.01S WCI  13
PERU/GRISSOM   SUNNY     25   7  47 NW21G28   29.97S WCI  10
ROCHESTER +    MOSUNNY   27  14  59 NW17G23   29.99R WCI  14
SOUTH BEND     LGT SNOW  20  17  88 NW17      29.97S FOG     WCI   5
WARSAW +       CLOUDY    23  12  63 NW20      29.94F WCI   8

$$

INZ006>009-017-018-025>027-122100-
NORTHEAST INDIANA

CITY           SKY/WX    TMP DP  RH WIND       PRES   REMARKS
AUBURN +       CLOUDY    23  12  63 NW16G25   29.92S WCI  10
FORT WAYNE     FLURRIES  22  16  78 NW10G21   29.93S WCI  11
HUNTINGTON +   PTSUNNY   23  12  63 W18G24    29.94F WCI   9
KENDALLVILLE + CLOUDY    20  12  72 NW7       29.91S WCI  11

$$

INZ028-029-035-036-043>045-051>053-122100-
WEST CENTRAL INDIANA

CITY           SKY/WX    TMP DP  RH WIND       PRES   REMARKS
CRAWFORDSVL +  SUNNY     25   9  50 MISG      30.03R
GREENCASTLE +  SUNNY     28   7  40 W8        30.03F WCI  20
LAFAYETTE      SUNNY     25   8  48 NW15G25   30.03F WCI  13
TERRE HAUTE    SUNNY     28   7  41 NW18G26   30.07F WCI  15

$$

INZ030>032-037>040-046>048-054>057-064-065-122100-
CENTRAL INDIANA

CITY           SKY/WX    TMP DP  RH WIND       PRES   REMARKS
COLUMBUS       SUNNY     28   5  37 NW21      30.02S WCI  15
FRANKFORT +    SUNNY     28   9  43 NW22      30.02S WCI  15
GREENWOOD *+   MOSUNNY   30  12  46 W10G22    30.00F WCI  21
INDIANAPOLIS   MOSUNNY   27   8  44 NW18G30   30.01F WCI  14
-EAGLE CREEK   SUNNY     27   8  44 NW16G26   30.00S WCI  15
KOKOMO +       MOSUNNY   27  10  49 W21       29.98S WCI  13
MARION +       CLOUDY    24  11  56 NW17G31   29.97S HAZE    WCI  11
MT COMFORT *+  PTSUNNY   28  12  50 NW15G26   29.98F WCI  17
SHELBYVILLE    MOSUNNY   27   7  42 W18G25    29.99S WCI  14
ZIONSVILLE +   MOSUNNY   25   7  46 NW15G24   29.99F WCI  13

$$

INZ033-034-041-042-049-050-058-059-122100-
EAST CENTRAL INDIANA

CITY           SKY/WX    TMP DP  RH WIND       PRES   REMARKS
MUNCIE         CLOUDY    26   9  48 NW18G29   29.95S WCI  13
RICHMOND +     CLOUDY    23  12  63 NW17G26   29.93S WCI   9

$$

INZ060-061-067>069-081>083-085>088-122100-
SOUTHWEST INDIANA

CITY           SKY/WX    TMP DP  RH WIND       PRES   REMARKS
EVANSVILLE     SUNNY     34   8  33 NW10G22   30.11F WCI  26
HUNTINGBURG +  SUNNY     32  13  45 NW16      30.08F WCI  21
WASHINGTON +   SUNNY     31  10  42 NW18G24   30.08F WCI  19

$$

INZ062-063-066-070>080-084-089>092-122100-
SOUTH CENTRAL AND SOUTHEAST INDIANA

CITY           SKY/WX    TMP DP  RH WIND       PRES   REMARKS
BEDFORD +      SUNNY     30   5  34 NW12G18   30.03F WCI  21
BLOOMINGTON    SUNNY     28   8  43 W14G25    30.03S WCI  17
MADISON *+     MOSUNNY   32   5  32 NW15G22   30.00S WCI  22
NORTH VERNON + SUNNY     28   5  37 W18G24    30.00S WCI  16
SEYMOUR +      SUNNY     32   9  37 NW12G21   30.01F WCI  23

$$




USA.gov is the U.S. government's official web portal to all federal, state and local government web resources and services.